AAL1008 KCLT-KPWM

Flight info

Callsign AAL1008
Flight time 1h 57m
Altitude 35000
Route BARMY5 RDU NOWAE Q87 GEARS BBOBO Q22 LLUND BDR SCOGS3
Aircraft B738/M-SDE2E3FGHIRWXY/LB1

Departure

Time 2026-04-12 11:44
Airport Charlotte Douglas International Airport (KCLT)

Arrival

Time 2026-04-12 13:41
Airport Portland International Jetport (KPWM)
Time Latitude Longitude Altitude Speed Heading
2026-04-12 11:07 35.21763 -80.94268 724 ft 0 kts 53°
2026-04-12 11:28 35.21762 -80.94269 723 ft 0 kts 53°
2026-04-12 11:28 35.21756 -80.94281 723 ft 2 kts 59°
2026-04-12 11:28 35.21747 -80.94295 723 ft 2 kts 58°
2026-04-12 11:29 35.21744 -80.94313 722 ft 2 kts 96°
2026-04-12 11:29 35.21748 -80.94331 722 ft 2 kts 125°
2026-04-12 11:29 35.21759 -80.94343 722 ft 2 kts 154°
2026-04-12 11:29 35.21769 -80.94347 722 ft 0 kts 174°
2026-04-12 11:30 35.21776 -80.94347 722 ft 0 kts 177°
2026-04-12 11:32 35.21762 -80.94346 722 ft 7 kts 177°
2026-04-12 11:32 35.21705 -80.94342 721 ft 4 kts 172°
2026-04-12 11:33 35.21681 -80.94309 721 ft 6 kts 101°
2026-04-12 11:33 35.21674 -80.94256 722 ft 5 kts 97°
2026-04-12 11:33 35.21658 -80.94211 722 ft 5 kts 146°
2026-04-12 11:33 35.21617 -80.94215 722 ft 6 kts 202°
2026-04-12 11:34 35.21571 -80.94265 720 ft 12 kts 228°
2026-04-12 11:34 35.21509 -80.94352 717 ft 14 kts 230°
2026-04-12 11:34 35.21431 -80.94463 712 ft 18 kts 229°
2026-04-12 11:34 35.21345 -80.94589 707 ft 20 kts 240°
2026-04-12 11:35 35.21296 -80.94749 706 ft 19 kts 248°
2026-04-12 11:35 35.21239 -80.94849 705 ft 10 kts 229°
2026-04-12 11:35 35.21167 -80.94891 705 ft 13 kts 179°
2026-04-12 11:35 35.21061 -80.94883 703 ft 13 kts 176°
2026-04-12 11:36 35.21030 -80.94814 701 ft 12 kts 53°
2026-04-12 11:36 35.21098 -80.94720 701 ft 16 kts 48°
2026-04-12 11:36 35.21169 -80.94618 704 ft 14 kts 49°
2026-04-12 11:36 35.21238 -80.94525 705 ft 15 kts 48°
2026-04-12 11:37 35.21314 -80.94421 708 ft 16 kts 49°
2026-04-12 11:37 35.21392 -80.94312 713 ft 16 kts 48°
2026-04-12 11:37 35.21466 -80.94212 718 ft 14 kts 48°
2026-04-12 11:37 35.21527 -80.94128 722 ft 14 kts 48°
2026-04-12 11:38 35.21592 -80.94040 724 ft 12 kts 48°
2026-04-12 11:38 35.21646 -80.93963 727 ft 7 kts 60°
2026-04-12 11:38 35.21632 -80.93913 728 ft 7 kts 135°
2026-04-12 11:38 35.21575 -80.93848 728 ft 14 kts 138°
2026-04-12 11:39 35.21500 -80.93767 729 ft 13 kts 139°
2026-04-12 11:39 35.21421 -80.93684 731 ft 15 kts 140°
2026-04-12 11:39 35.21320 -80.93651 730 ft 15 kts 177°
2026-04-12 11:39 35.21207 -80.93642 728 ft 17 kts 176°
2026-04-12 11:40 35.21072 -80.93630 725 ft 20 kts 176°
2026-04-12 11:40 35.20927 -80.93618 722 ft 21 kts 176°
2026-04-12 11:40 35.20777 -80.93605 719 ft 21 kts 176°
2026-04-12 11:40 35.20628 -80.93593 719 ft 21 kts 176°
2026-04-12 11:41 35.20480 -80.93581 717 ft 21 kts 176°
2026-04-12 11:41 35.20329 -80.93568 714 ft 22 kts 176°
2026-04-12 11:41 35.20184 -80.93556 711 ft 16 kts 176°
2026-04-12 11:41 35.20115 -80.93529 709 ft 6 kts 125°
2026-04-12 11:42 35.20113 -80.93525 709 ft 0 kts 120°
2026-04-12 11:42 35.20112 -80.93523 709 ft 1 kts 118°
2026-04-12 11:42 35.20107 -80.93493 709 ft 6 kts 91°
2026-04-12 11:43 35.20170 -80.93419 709 ft 9 kts 356°
2026-04-12 11:43 35.20366 -80.93434 712 ft 59 kts 356°
2026-04-12 11:43 35.20993 -80.93488 723 ft 119 kts 355°
2026-04-12 11:43 35.22001 -80.93577 745 ft 166 kts 355°
2026-04-12 11:44 35.23167 -80.93669 1255 ft 172 kts 356°
2026-04-12 11:44 35.24363 -80.93593 1859 ft 176 kts 15°
2026-04-12 11:44 35.25528 -80.93079 2458 ft 178 kts 18°
2026-04-12 11:44 35.26741 -80.92593 2758 ft 192 kts 18°
2026-04-12 11:45 35.28057 -80.92072 2961 ft 211 kts 17°
2026-04-12 11:45 35.29487 -80.91456 3241 ft 227 kts 28°
2026-04-12 11:45 35.30644 -80.90040 3471 ft 245 kts 67°
2026-04-12 11:45 35.30897 -80.87985 3834 ft 254 kts 98°
2026-04-12 11:46 35.30481 -80.85839 4301 ft 262 kts 107°
2026-04-12 11:46 35.30013 -80.83694 4879 ft 266 kts 104°
2026-04-12 11:46 35.29644 -80.81489 5504 ft 268 kts 101°
2026-04-12 11:46 35.29344 -80.79256 6151 ft 269 kts 99°
2026-04-12 11:47 35.29064 -80.76981 6811 ft 271 kts 99°
2026-04-12 11:47 35.28785 -80.74700 7413 ft 275 kts 99°
2026-04-12 11:47 35.28497 -80.72382 8076 ft 276 kts 99°
2026-04-12 11:47 35.28204 -80.70063 8693 ft 279 kts 99°
2026-04-12 11:48 35.27909 -80.67735 9320 ft 282 kts 99°
2026-04-12 11:48 35.27607 -80.65353 9988 ft 284 kts 99°
2026-04-12 11:48 35.27300 -80.62947 10431 ft 294 kts 98°
2026-04-12 11:48 35.26977 -80.60425 10759 ft 309 kts 98°
2026-04-12 11:49 35.26640 -80.57793 11092 ft 323 kts 98°
2026-04-12 11:49 35.26285 -80.55021 11589 ft 332 kts 98°
2026-04-12 11:49 35.25927 -80.52230 12144 ft 338 kts 98°
2026-04-12 11:49 35.25562 -80.49389 12727 ft 342 kts 98°
2026-04-12 11:50 35.25285 -80.46487 13259 ft 348 kts 91°
2026-04-12 11:50 35.25399 -80.43535 13908 ft 351 kts 82°
2026-04-12 11:50 35.25766 -80.40593 14542 ft 355 kts 78°
2026-04-12 11:50 35.26231 -80.37598 15180 ft 359 kts 77°
2026-04-12 11:51 35.26702 -80.34609 15860 ft 362 kts 78°
2026-04-12 11:51 35.27158 -80.31561 16451 ft 367 kts 79°
2026-04-12 11:51 35.27593 -80.28480 17078 ft 370 kts 79°
2026-04-12 11:51 35.28007 -80.25402 17644 ft 375 kts 79°
2026-04-12 11:52 35.28420 -80.22255 18243 ft 378 kts 79°
2026-04-12 11:52 35.28836 -80.19046 18804 ft 382 kts 79°
2026-04-12 11:52 35.29245 -80.15872 19381 ft 385 kts 79°
2026-04-12 11:52 35.29671 -80.12637 19909 ft 388 kts 78°
2026-04-12 11:53 35.30233 -80.09366 20447 ft 390 kts 72°
2026-04-12 11:53 35.30985 -80.06224 20922 ft 393 kts 69°
2026-04-12 11:53 35.31879 -80.03031 21439 ft 395 kts 66°
2026-04-12 11:53 35.32816 -79.99883 21895 ft 399 kts 66°
2026-04-12 11:54 35.33784 -79.96683 22470 ft 400 kts 65°
2026-04-12 11:54 35.34738 -79.93522 22889 ft 405 kts 65°
2026-04-12 11:54 35.35711 -79.90277 23361 ft 408 kts 65°
2026-04-12 11:54 35.36682 -79.87006 23923 ft 408 kts 65°
2026-04-12 11:55 35.37637 -79.83762 24345 ft 412 kts 65°
2026-04-12 11:55 35.38610 -79.80441 24815 ft 415 kts 65°
2026-04-12 11:55 35.39583 -79.77106 25283 ft 417 kts 65°
2026-04-12 11:55 35.40556 -79.73763 25694 ft 421 kts 65°
2026-04-12 11:56 35.41535 -79.70393 26158 ft 423 kts 65°
2026-04-12 11:56 35.42519 -79.67004 26580 ft 425 kts 65°
2026-04-12 11:56 35.43516 -79.63564 26954 ft 429 kts 65°
2026-04-12 11:56 35.44508 -79.60133 27360 ft 432 kts 65°
2026-04-12 11:57 35.45513 -79.56657 27780 ft 433 kts 65°
2026-04-12 11:57 35.46522 -79.53159 28097 ft 438 kts 65°
2026-04-12 11:57 35.47530 -79.49663 28487 ft 440 kts 64°
2026-04-12 11:57 35.48555 -79.46099 28914 ft 441 kts 64°
2026-04-12 11:58 35.49568 -79.42568 29259 ft 444 kts 64°
2026-04-12 11:58 35.50581 -79.39033 29626 ft 446 kts 64°
2026-04-12 11:58 35.51622 -79.35398 29986 ft 448 kts 64°
2026-04-12 11:58 35.52644 -79.31828 30331 ft 450 kts 65°
2026-04-12 11:59 35.53679 -79.28207 30758 ft 450 kts 64°
2026-04-12 11:59 35.54710 -79.24591 31152 ft 450 kts 64°
2026-04-12 11:59 35.55751 -79.20940 31424 ft 453 kts 64°
2026-04-12 11:59 35.56790 -79.17286 31838 ft 453 kts 64°
2026-04-12 12:00 35.57879 -79.13668 32077 ft 454 kts 61°
2026-04-12 12:00 35.59206 -79.10130 32415 ft 449 kts 55°
2026-04-12 12:00 35.60776 -79.06887 32700 ft 445 kts 49°
2026-04-12 12:00 35.62632 -79.03859 33086 ft 438 kts 43°
2026-04-12 12:01 35.64713 -79.01130 33242 ft 436 kts 37°
2026-04-12 12:01 35.66984 -78.98729 33781 ft 427 kts 31°
2026-04-12 12:01 35.69289 -78.96561 34376 ft 420 kts 30°
2026-04-12 12:01 35.71642 -78.94405 34919 ft 416 kts 30°
2026-04-12 12:02 35.73925 -78.92265 35337 ft 415 kts 31°
2026-04-12 12:02 35.78455 -78.87777 35401 ft 421 kts 32°
2026-04-12 12:03 35.82865 -78.83124 35405 ft 417 kts 33°
2026-04-12 12:03 35.87231 -78.78401 35419 ft 420 kts 33°
2026-04-12 12:04 35.91632 -78.73711 35424 ft 420 kts 33°
2026-04-12 12:04 35.96085 -78.69057 35421 ft 418 kts 32°
2026-04-12 12:05 36.00512 -78.64429 35422 ft 418 kts 32°
2026-04-12 12:05 36.04939 -78.59785 35430 ft 420 kts 32°
2026-04-12 12:06 36.09386 -78.55105 35424 ft 419 kts 32°
2026-04-12 12:06 36.13804 -78.50443 35430 ft 420 kts 32°
2026-04-12 12:07 36.18216 -78.45776 35425 ft 418 kts 32°
2026-04-12 12:07 36.22637 -78.41089 35421 ft 416 kts 32°
2026-04-12 12:08 36.27034 -78.36426 35425 ft 417 kts 32°
2026-04-12 12:08 36.31434 -78.31755 35423 ft 421 kts 33°
2026-04-12 12:09 36.35860 -78.27045 35425 ft 419 kts 33°
2026-04-12 12:09 36.40257 -78.22259 35424 ft 420 kts 34°
2026-04-12 12:10 36.44500 -78.17275 35425 ft 421 kts 36°
2026-04-12 12:10 36.48704 -78.12260 35430 ft 422 kts 36°
2026-04-12 12:11 36.52964 -78.07198 35443 ft 422 kts 36°
2026-04-12 12:11 36.57213 -78.02165 35445 ft 423 kts 35°
2026-04-12 12:12 36.61441 -77.97160 35449 ft 421 kts 36°
2026-04-12 12:12 36.65699 -77.92128 35448 ft 422 kts 35°
2026-04-12 12:13 36.69915 -77.87132 35447 ft 422 kts 35°
2026-04-12 12:13 36.74207 -77.82046 35446 ft 423 kts 35°
2026-04-12 12:14 36.78439 -77.77010 35443 ft 421 kts 35°
2026-04-12 12:14 36.82667 -77.71985 35446 ft 424 kts 35°
2026-04-12 12:15 36.86955 -77.66883 35443 ft 426 kts 35°
2026-04-12 12:15 36.91222 -77.61790 35435 ft 423 kts 35°
2026-04-12 12:16 36.95455 -77.56733 35433 ft 425 kts 35°
2026-04-12 12:16 36.99705 -77.51646 35440 ft 423 kts 35°
2026-04-12 12:17 37.03948 -77.46564 35451 ft 424 kts 36°
2026-04-12 12:17 37.08264 -77.41533 35454 ft 420 kts 32°
2026-04-12 12:18 37.13102 -77.37737 35457 ft 406 kts 16°
2026-04-12 12:18 37.18338 -77.35267 35450 ft 401 kts 12°
2026-04-12 12:19 37.23612 -77.33079 35452 ft 402 kts 12°
2026-04-12 12:19 37.28936 -77.30856 35451 ft 404 kts 12°
2026-04-12 12:20 37.34285 -77.28571 35452 ft 405 kts 13°
2026-04-12 12:20 37.39576 -77.26278 35453 ft 404 kts 13°
2026-04-12 12:21 37.44871 -77.23970 35450 ft 402 kts 13°
2026-04-12 12:21 37.50162 -77.21659 35454 ft 404 kts 13°
2026-04-12 12:22 37.55484 -77.19334 35451 ft 406 kts 13°
2026-04-12 12:22 37.60796 -77.17004 35445 ft 404 kts 13°
2026-04-12 12:23 37.66092 -77.14680 35445 ft 405 kts 13°
2026-04-12 12:23 37.71329 -77.11930 35445 ft 411 kts 19°
2026-04-12 12:24 37.76387 -77.08547 35449 ft 414 kts 22°
2026-04-12 12:24 37.81392 -77.05021 35448 ft 413 kts 22°
2026-04-12 12:25 37.86412 -77.01485 35451 ft 413 kts 22°
2026-04-12 12:25 37.91457 -76.97955 35453 ft 413 kts 22°
2026-04-12 12:26 37.96483 -76.94450 35447 ft 414 kts 22°
2026-04-12 12:26 38.01533 -76.90934 35441 ft 414 kts 22°
2026-04-12 12:27 38.06574 -76.87416 35454 ft 412 kts 22°
2026-04-12 12:27 38.11584 -76.83920 35447 ft 414 kts 22°
2026-04-12 12:28 38.16625 -76.80396 35451 ft 415 kts 22°
2026-04-12 12:28 38.21664 -76.76853 35458 ft 414 kts 22°
2026-04-12 12:29 38.26496 -76.72758 35458 ft 422 kts 30°
2026-04-12 12:29 38.31078 -76.67996 35457 ft 424 kts 33°
2026-04-12 12:30 38.35540 -76.63120 35460 ft 425 kts 33°
2026-04-12 12:30 38.40001 -76.58228 35463 ft 425 kts 33°
2026-04-12 12:31 38.44495 -76.53329 35461 ft 426 kts 32°
2026-04-12 12:31 38.48987 -76.48489 35460 ft 423 kts 32°
2026-04-12 12:32 38.53519 -76.43625 35461 ft 424 kts 32°
2026-04-12 12:32 38.57270 -76.39593 35459 ft 424 kts 32°
2026-04-12 12:33 38.62524 -76.33932 35459 ft 426 kts 33°
2026-04-12 12:33 38.67044 -76.29049 35462 ft 425 kts 33°
2026-04-12 12:34 38.71528 -76.24194 35464 ft 424 kts 33°
2026-04-12 12:34 38.76043 -76.19305 35464 ft 427 kts 33°
2026-04-12 12:35 38.80543 -76.14419 35471 ft 425 kts 33°
2026-04-12 12:35 38.85025 -76.09544 35477 ft 425 kts 33°
2026-04-12 12:36 38.89533 -76.04631 35483 ft 425 kts 33°
2026-04-12 12:36 38.94033 -75.99722 35482 ft 426 kts 33°
2026-04-12 12:37 38.98502 -75.94750 35481 ft 428 kts 35°
2026-04-12 12:37 39.02910 -75.89520 35473 ft 431 kts 36°
2026-04-12 12:38 39.07265 -75.84260 35472 ft 429 kts 36°
2026-04-12 12:38 39.11618 -75.79009 35469 ft 427 kts 36°
2026-04-12 12:39 39.15934 -75.73824 35468 ft 428 kts 36°
2026-04-12 12:39 39.20267 -75.68623 35472 ft 426 kts 35°
2026-04-12 12:40 39.24609 -75.63411 35475 ft 427 kts 35°
2026-04-12 12:40 39.28937 -75.58209 35477 ft 427 kts 35°
2026-04-12 12:41 39.33281 -75.52979 35477 ft 426 kts 35°
2026-04-12 12:41 39.37611 -75.47753 35478 ft 426 kts 35°
2026-04-12 12:42 39.41933 -75.42530 35485 ft 427 kts 35°
2026-04-12 12:42 39.48402 -75.34690 35491 ft 425 kts 36°
2026-04-12 12:43 39.52722 -75.29450 35497 ft 427 kts 36°
2026-04-12 12:43 39.57049 -75.24194 35503 ft 428 kts 36°
2026-04-12 12:44 39.61359 -75.18941 35501 ft 428 kts 36°
2026-04-12 12:44 39.65685 -75.13660 35506 ft 429 kts 35°
2026-04-12 12:45 39.70038 -75.08428 35503 ft 427 kts 34°
2026-04-12 12:45 39.74517 -75.03382 35506 ft 427 kts 33°
2026-04-12 12:46 39.79024 -74.98384 35510 ft 426 kts 33°
2026-04-12 12:46 39.83504 -74.93373 35517 ft 425 kts 33°
2026-04-12 12:47 39.87965 -74.88347 35515 ft 426 kts 33°
2026-04-12 12:47 39.92529 -74.83527 35519 ft 421 kts 28°
2026-04-12 12:48 39.97273 -74.79155 35516 ft 419 kts 27°
2026-04-12 12:48 40.02047 -74.74833 35516 ft 419 kts 28°
2026-04-12 12:49 40.06450 -74.69711 35512 ft 429 kts 37°
2026-04-12 12:49 40.10492 -74.63959 35511 ft 432 kts 40°
2026-04-12 12:50 40.14484 -74.58060 35510 ft 432 kts 40°
2026-04-12 12:50 40.18434 -74.52245 35509 ft 431 kts 39°
2026-04-12 12:51 40.22674 -74.46774 35501 ft 425 kts 32°
2026-04-12 12:51 40.27203 -74.41870 35501 ft 421 kts 30°
2026-04-12 12:52 40.31784 -74.37075 35505 ft 421 kts 30°
2026-04-12 12:52 40.36312 -74.32306 35514 ft 421 kts 31°
2026-04-12 12:53 40.40861 -74.27464 35515 ft 422 kts 31°
2026-04-12 12:53 40.45412 -74.22584 35523 ft 419 kts 31°
2026-04-12 12:54 40.49930 -74.17726 35529 ft 423 kts 31°
2026-04-12 12:54 40.54447 -74.12852 35520 ft 420 kts 31°
2026-04-12 12:55 40.58953 -74.07984 35523 ft 423 kts 31°
2026-04-12 12:55 40.63482 -74.03077 35526 ft 421 kts 31°
2026-04-12 12:56 40.67980 -73.98199 35523 ft 421 kts 31°
2026-04-12 12:56 40.72491 -73.93298 35523 ft 421 kts 31°
2026-04-12 12:57 40.76991 -73.88400 35525 ft 421 kts 31°
2026-04-12 12:57 40.81485 -73.83498 35528 ft 420 kts 31°
2026-04-12 12:58 40.85796 -73.78163 35521 ft 430 kts 40°
2026-04-12 12:58 40.89383 -73.71748 35522 ft 440 kts 48°
2026-04-12 12:59 40.92569 -73.64868 35525 ft 442 kts 50°
2026-04-12 12:59 40.95693 -73.57862 35519 ft 444 kts 50°
2026-04-12 13:00 40.98809 -73.50869 35520 ft 444 kts 50°
2026-04-12 13:00 41.01957 -73.43864 35529 ft 444 kts 50°
2026-04-12 13:01 41.05113 -73.36855 35530 ft 442 kts 49°
2026-04-12 13:01 41.08268 -73.29860 35527 ft 444 kts 50°
2026-04-12 13:02 41.11422 -73.22857 35525 ft 443 kts 50°
2026-04-12 13:02 41.14576 -73.15836 35521 ft 444 kts 50°
2026-04-12 13:03 41.17749 -73.08816 35521 ft 442 kts 49°
2026-04-12 13:03 41.21003 -73.01881 35520 ft 442 kts 48°
2026-04-12 13:04 41.24270 -72.94983 35521 ft 442 kts 48°
2026-04-12 13:04 41.27529 -72.88077 35519 ft 444 kts 48°
2026-04-12 13:05 41.30770 -72.81168 35518 ft 441 kts 48°
2026-04-12 13:05 41.34011 -72.74226 35519 ft 445 kts 48°
2026-04-12 13:06 41.37249 -72.67268 35520 ft 442 kts 48°
2026-04-12 13:06 41.40471 -72.60326 35524 ft 443 kts 48°
2026-04-12 13:07 41.43704 -72.53345 35520 ft 444 kts 48°
2026-04-12 13:07 41.46917 -72.46391 35521 ft 444 kts 48°
2026-04-12 13:08 41.50144 -72.39392 35515 ft 442 kts 48°
2026-04-12 13:08 41.53341 -72.32443 35511 ft 445 kts 49°
2026-04-12 13:09 41.56571 -72.25410 35502 ft 444 kts 49°
2026-04-12 13:09 41.59765 -72.18427 35511 ft 444 kts 49°
2026-04-12 13:10 41.62987 -72.11375 35510 ft 444 kts 49°
2026-04-12 13:10 41.66181 -72.04366 35512 ft 444 kts 49°
2026-04-12 13:11 41.69375 -71.97337 35504 ft 443 kts 49°
2026-04-12 13:11 41.72554 -71.90324 35502 ft 442 kts 49°
2026-04-12 13:12 41.75745 -71.83276 35496 ft 443 kts 49°
2026-04-12 13:12 41.78911 -71.76268 35500 ft 445 kts 49°
2026-04-12 13:13 41.82109 -71.69168 35510 ft 445 kts 49°
2026-04-12 13:13 41.85253 -71.62023 35516 ft 448 kts 51°
2026-04-12 13:14 41.88039 -71.54553 35523 ft 450 kts 54°
2026-04-12 13:14 41.90717 -71.46904 35527 ft 451 kts 54°
2026-04-12 13:15 41.93354 -71.39360 35522 ft 451 kts 54°
2026-04-12 13:15 41.96046 -71.31732 35520 ft 451 kts 55°
2026-04-12 13:16 41.98737 -71.24138 35520 ft 452 kts 54°
2026-04-12 13:16 42.01432 -71.16541 35519 ft 450 kts 54°
2026-04-12 13:17 42.04132 -71.08935 35519 ft 453 kts 54°
2026-04-12 13:17 42.06863 -71.01391 35507 ft 446 kts 51°
2026-04-12 13:18 42.08443 -70.97940 35506 ft 434 kts 42°
2026-04-12 13:18 42.10460 -70.94963 35510 ft 420 kts 31°
2026-04-12 13:18 42.15193 -70.90788 35241 ft 401 kts 17°
2026-04-12 13:19 42.17707 -70.89275 34776 ft 393 kts 13°
2026-04-12 13:19 42.20223 -70.88005 34091 ft 390 kts 10°
2026-04-12 13:19 42.22805 -70.86820 33364 ft 389 kts
2026-04-12 13:19 42.25357 -70.85684 32813 ft 385 kts
2026-04-12 13:20 42.27871 -70.84561 32297 ft 381 kts
2026-04-12 13:20 42.30336 -70.83447 31770 ft 377 kts
2026-04-12 13:20 42.32832 -70.82304 31221 ft 374 kts
2026-04-12 13:20 42.35275 -70.81176 30683 ft 371 kts
2026-04-12 13:21 42.37702 -70.80049 30148 ft 369 kts 10°
2026-04-12 13:21 42.40093 -70.78934 29623 ft 366 kts
2026-04-12 13:21 42.42508 -70.77805 29079 ft 363 kts 10°
2026-04-12 13:21 42.44871 -70.76667 28547 ft 362 kts 11°
2026-04-12 13:22 42.47187 -70.75448 28027 ft 361 kts 12°
2026-04-12 13:22 42.49514 -70.74160 27493 ft 359 kts 13°
2026-04-12 13:22 42.51812 -70.72869 26968 ft 357 kts 13°
2026-04-12 13:22 42.54074 -70.71599 26448 ft 354 kts 13°
2026-04-12 13:23 42.56337 -70.70334 25925 ft 352 kts 13°
2026-04-12 13:23 42.58597 -70.69076 25404 ft 349 kts 13°
2026-04-12 13:23 42.60834 -70.67837 24898 ft 347 kts 13°
2026-04-12 13:23 42.63063 -70.66605 24388 ft 345 kts 13°
2026-04-12 13:24 42.65268 -70.65387 23876 ft 344 kts 13°
2026-04-12 13:24 42.67473 -70.64171 23376 ft 342 kts 13°
2026-04-12 13:24 42.69672 -70.62894 22872 ft 343 kts 15°
2026-04-12 13:24 42.71817 -70.61561 22362 ft 342 kts 16°
2026-04-12 13:25 42.73946 -70.60201 21866 ft 341 kts 16°
2026-04-12 13:25 42.76096 -70.58824 21354 ft 340 kts 16°
2026-04-12 13:25 42.78239 -70.57456 20840 ft 339 kts 16°
2026-04-12 13:25 42.80339 -70.56121 20337 ft 337 kts 16°
2026-04-12 13:26 42.82470 -70.54770 19828 ft 336 kts 16°
2026-04-12 13:26 42.84576 -70.53437 19322 ft 335 kts 15°
2026-04-12 13:26 42.86670 -70.52113 18826 ft 334 kts 16°
2026-04-12 13:26 42.88786 -70.50777 18319 ft 333 kts 16°
2026-04-12 13:27 42.90864 -70.49464 17776 ft 333 kts 16°
2026-04-12 13:27 42.92979 -70.48128 17229 ft 333 kts 16°
2026-04-12 13:27 42.95051 -70.46815 16778 ft 331 kts 17°
2026-04-12 13:27 42.97146 -70.45486 16313 ft 328 kts 17°
2026-04-12 13:28 42.98504 -70.44626 15984 ft 327 kts 17°
2026-04-12 13:28 43.01228 -70.42897 15352 ft 325 kts 17°
2026-04-12 13:28 43.03236 -70.41486 14901 ft 326 kts 22°
2026-04-12 13:28 43.05187 -70.39867 14430 ft 326 kts 25°
2026-04-12 13:29 43.07049 -70.38207 13991 ft 324 kts 26°
2026-04-12 13:29 43.08917 -70.36521 13582 ft 320 kts 25°
2026-04-12 13:29 43.10766 -70.34866 13156 ft 317 kts 26°
2026-04-12 13:29 43.12618 -70.33234 12670 ft 315 kts 26°
2026-04-12 13:30 43.14452 -70.31633 12234 ft 313 kts 26°
2026-04-12 13:30 43.16291 -70.30032 11783 ft 311 kts 26°
2026-04-12 13:30 43.18085 -70.28466 11394 ft 307 kts 27°
2026-04-12 13:30 43.19886 -70.26884 10999 ft 303 kts 27°
2026-04-12 13:31 43.21634 -70.25343 10777 ft 297 kts 27°
2026-04-12 13:31 43.23358 -70.23824 10232 ft 299 kts 27°
2026-04-12 13:31 43.25127 -70.22284 9734 ft 298 kts 26°
2026-04-12 13:31 43.26963 -70.20999 9252 ft 295 kts 19°
2026-04-12 13:32 43.28822 -70.19952 8898 ft 290 kts 17°
2026-04-12 13:32 43.30706 -70.18960 8436 ft 289 kts 17°
2026-04-12 13:32 43.32581 -70.17999 7973 ft 288 kts 17°
2026-04-12 13:32 43.34450 -70.17060 7554 ft 285 kts 17°
2026-04-12 13:33 43.36295 -70.16198 7131 ft 282 kts 12°
2026-04-12 13:33 43.38232 -70.15774 6653 ft 280 kts
2026-04-12 13:33 43.40168 -70.15717 6221 ft 278 kts 358°
2026-04-12 13:33 43.42087 -70.15745 5829 ft 275 kts 358°
2026-04-12 13:34 43.44005 -70.15793 5389 ft 275 kts 358°
2026-04-12 13:34 43.45902 -70.15846 5073 ft 269 kts 358°
2026-04-12 13:34 43.47735 -70.15903 4945 ft 258 kts 358°
2026-04-12 13:34 43.49481 -70.15961 4836 ft 247 kts 358°
2026-04-12 13:35 43.51160 -70.16030 4666 ft 239 kts 355°
2026-04-12 13:35 43.52808 -70.16265 4366 ft 237 kts 351°
2026-04-12 13:35 43.54437 -70.16531 4046 ft 236 kts 354°
2026-04-12 13:35 43.56070 -70.16706 3753 ft 234 kts 355°
2026-04-12 13:36 43.57684 -70.16857 3408 ft 234 kts 355°
2026-04-12 13:36 43.59304 -70.17009 3142 ft 231 kts 355°
2026-04-12 13:36 43.60876 -70.17155 3027 ft 222 kts 356°
2026-04-12 13:36 43.62416 -70.17195 2658 ft 225 kts
2026-04-12 13:37 43.63978 -70.17132 2403 ft 222 kts
2026-04-12 13:37 43.65472 -70.17075 2499 ft 203 kts
2026-04-12 13:37 43.66834 -70.17032 2462 ft 189 kts 359°
2026-04-12 13:37 43.68114 -70.17116 2354 ft 183 kts 348°
2026-04-12 13:38 43.69292 -70.17809 2005 ft 190 kts 324°
2026-04-12 13:38 43.70129 -70.19140 1946 ft 175 kts 298°
2026-04-12 13:38 43.70313 -70.20703 1785 ft 169 kts 261°
2026-04-12 13:38 43.69688 -70.22134 1366 ft 182 kts 222°
2026-04-12 13:39 43.68553 -70.22809 1223 ft 177 kts 192°
2026-04-12 13:39 43.67367 -70.23028 1113 ft 164 kts 190°
2026-04-12 13:39 43.66245 -70.23334 938 ft 165 kts 200°
2026-04-12 13:39 43.65254 -70.24044 867 ft 156 kts 221°
2026-04-12 13:40 43.64492 -70.25095 671 ft 156 kts 238°
2026-04-12 13:40 43.63993 -70.26367 603 ft 147 kts 261°
2026-04-12 13:40 43.64062 -70.27722 402 ft 142 kts 293°
2026-04-12 13:40 43.64339 -70.29021 216 ft 144 kts 283°
2026-04-12 13:41 43.64436 -70.30395 48 ft 139 kts 281°
2026-04-12 13:41 43.64510 -70.31467 67 ft 74 kts 277°
2026-04-12 13:41 43.64543 -70.31895 67 ft 27 kts 278°
2026-04-12 13:41 43.64553 -70.32054 67 ft 9 kts 286°
2026-04-12 13:42 43.64606 -70.32091 67 ft 9 kts 358°
2026-04-12 13:42 43.64653 -70.32050 67 ft 8 kts 73°
2026-04-12 13:42 43.64654 -70.31973 67 ft 7 kts 92°
2026-04-12 13:42 43.64650 -70.31909 68 ft 8 kts 96°
2026-04-12 13:43 43.64642 -70.31805 70 ft 12 kts 96°
2026-04-12 13:43 43.64635 -70.31690 69 ft 11 kts 95°
2026-04-12 13:43 43.64629 -70.31584 69 ft 10 kts 94°
2026-04-12 13:43 43.64622 -70.31484 69 ft 10 kts 96°
2026-04-12 13:44 43.64632 -70.31395 68 ft 9 kts 49°
2026-04-12 13:44 43.64693 -70.31378 68 ft 4 kts 359°
2026-04-12 13:44 43.64714 -70.31356 68 ft 3 kts 73°
2026-04-12 13:44 43.64722 -70.31319 68 ft 3 kts 68°
2026-04-12 13:45 43.64730 -70.31296 68 ft 0 kts 63°
2026-04-12 13:45 43.64731 -70.31293 68 ft 0 kts 63°